Погода в Вересочи

Украина / Черниговская область     51°18′56″N   31°47′08″E
темп.,
°C
ветер,
м/с
пор.,
м/с
влажн.,
%
обл.,
%
осадки,
мм/ч
давл.,
гПа
погр.,
м
26 июля, пн
пн2600:00+17вюв228812 0.0 102117
03:00+16вюв229020 0.3 102115
06:00+17вюв22863 0.0 102114
09:00+23юв34652 0.0 1021361
12:00+27юв334440 0.0 10211103
15:00+28ююв44395 0.0 10201995
18:00+28ю434290 0.1 10201427
21:00+23ююз224973 0.8 102017
27 июля, вт
вт2700:00+18вюв347648 0.0 102160
03:00+18вюв357375 0.0 102174
06:00+17юв376921 0.0 1021135
09:00+24ююв475154 0.0 1020378
12:00+29ююв563839 0.0 10191251
15:00+31ю563458 0.0 10182884
18:00+30ююв563938 0.0 10171828
21:00+22ссв1169100 0.2 101715
28 июля, ср
ср2800:00+21ююв3368100 0.4 101639
03:00+20ю41067100 0.6 1015162
06:00+19ююз4981100 0.3 1014198
09:00+22юз5780100 0.9 1013387
12:00+28зюз565999 0.0 10131214
15:00+29з46595 4.2 10121351
18:00+29зсз46455 0.1 10121776
21:00+23сз34620 0.1 101247
29 июля, чт
чт2900:00+21сз22703 0.0 101322
03:00+20зсз33725 0.0 101338
06:00+19сз227599 0.0 101326
09:00+26юз235794 0.0 1013369
12:00+29зюз224587 0.0 10131704
15:00+29зюз434487 0.0 10121406
18:00+29юз444586 0.0 10111395
21:00+22ююз357695 0.0 1011126
30 июля, пт
пт3000:00+19ююз358899 0.1 1012116
03:00+18зюз2496100 0.1 101178
06:00+18юз2394100 0.0 101168
09:00+23юз23686 0.0 1011471
12:00+28ююз455449 0.0 10101412
15:00+28зюз445294 0.1 10091658
18:00+29з354998 0.0 10091982
21:00+24зсз2370100 0.0 100941